Location: Newark
(49.2191°N, 12.6671°E)
Time: 19:35:10
(UTC+00:00)

Transit 4A - All Passes

Search period start: 24 January 2020 00:00
Search period end: 03 February 2020 00:00
Orbit: 871 x 973 km, 66.8° (Epoch: 24 January)

Date Brightness Start Highest point End Pass type
(mag) Time Alt. Az. Time Alt. Az. Time Alt. Az.
24 Jan - 04:16:15 10° ESE 04:18:14 12° E 04:20:13 10° E visible
24 Jan - 05:57:32 10° SSW 06:03:29 65° ESE 06:09:19 10° NE visible
24 Jan - 07:44:52 10° WSW 07:50:14 33° NW 07:55:32 10° NNE daylight
24 Jan - 09:35:05 10° NW 09:38:28 15° NNW 09:41:50 10° NNE daylight
24 Jan - 11:23:51 10° NNW 11:27:22 16° NNE 11:30:52 10° NE daylight
24 Jan - 13:10:05 10° NNW 13:15:29 37° NE 13:20:52 10° ESE daylight
24 Jan - 14:56:24 10° NW 15:02:03 54° WSW 15:07:44 10° SSE daylight
25 Jan - 04:23:21 10° SE 04:27:13 18° ESE 04:31:01 10° ENE visible
25 Jan - 06:06:45 10° SSW 06:12:47 88° SE 06:18:42 10° NE visible
25 Jan - 07:54:53 10° W 07:59:52 27° NNW 08:04:48 10° NNE daylight
25 Jan - 09:45:17 10° NW 09:48:21 14° N 09:51:24 10° NNE daylight
25 Jan - 11:33:16 10° NNW 11:37:12 18° NNE 11:41:07 10° ENE daylight
25 Jan - 13:19:20 10° NNW 13:25:00 48° NE 13:30:39 10° ESE daylight
25 Jan - 15:05:56 10° NW 15:11:15 38° WSW 15:16:35 10° S daylight
26 Jan - 04:31:25 10° SSE 04:36:15 26° ESE 04:41:01 10° NE visible
26 Jan - 06:16:09 10° SW 06:22:09 69° NW 06:28:02 10° NNE visible
26 Jan - 08:05:02 10° WNW 08:09:34 22° NNW 08:14:04 10° NNE daylight
26 Jan - 09:55:19 10° NNW 09:58:15 14° N 10:01:10 10° NNE daylight
26 Jan - 11:42:35 10° NNW 11:46:58 21° NNE 11:51:20 10° ENE daylight
26 Jan - 13:28:38 10° NNW 13:34:27 65° NE 13:40:16 10° SE daylight
26 Jan - 15:15:36 10° NW 15:20:22 27° WSW 15:25:09 10° SSW daylight
27 Jan - 04:39:56 10° S 04:45:22 37° ESE 04:50:43 10° NE visible
27 Jan - 06:25:46 10° WSW 06:31:35 51° NW 06:37:19 10° NNE daylight
27 Jan - 08:15:15 10° WNW 08:19:20 19° NNW 08:23:22 10° NNE daylight
27 Jan - 10:05:09 10° NNW 10:08:09 14° N 10:11:09 10° NE daylight
27 Jan - 11:51:52 10° NNW 11:56:41 26° NNE 12:01:29 10° E daylight
27 Jan - 13:37:57 10° NW 13:43:49 88° NE 13:49:41 10° SE daylight
27 Jan - 15:25:34 10° WNW 15:29:24 18° WSW 15:33:17 10° SSW daylight
28 Jan - 04:48:46 10° SSW 04:54:34 52° ESE 05:00:15 10° NE visible
28 Jan - 06:35:32 10° WSW 06:41:06 39° NW 06:46:36 10° NNE daylight
28 Jan - 08:25:32 10° NW 08:29:09 16° NNW 08:32:45 10° NNE daylight
28 Jan - 10:14:46 10° NNW 10:18:02 15° NNE 10:21:18 10° NE daylight
28 Jan - 12:01:08 10° NNW 12:06:19 32° NE 12:11:30 10° E daylight
28 Jan - 13:47:20 10° NW 13:53:08 68° WSW 13:58:56 10° SSE daylight
28 Jan - 15:36:15 10° W 15:38:23 12° WSW 15:40:32 10° WSW daylight
29 Jan - 03:15:37 10° SE 03:18:27 14° ESE 03:21:15 10° ENE visible
29 Jan - 04:57:50 10° SSW 05:03:49 73° ESE 05:09:41 10° NE visible
29 Jan - 06:45:28 10° W 06:50:42 31° NW 06:55:51 10° NNE daylight
29 Jan - 08:35:47 10° NW 08:39:01 15° N 08:42:14 10° NNE daylight
29 Jan - 10:24:15 10° NNW 10:27:53 17° NNE 10:31:32 10° NE daylight
29 Jan - 12:10:24 10° NNW 12:15:54 41° NE 12:21:24 10° ESE daylight
29 Jan - 13:56:48 10° NW 14:02:22 48° WSW 14:07:57 10° S daylight
30 Jan - 03:23:12 10° SSE 03:27:27 20° ESE 03:31:39 10° ENE visible
30 Jan - 05:07:07 10° SW 05:13:08 83° NW 05:19:03 10° NE visible
30 Jan - 06:55:32 10° W 07:00:20 25° NNW 07:05:07 10° NNE daylight
30 Jan - 08:45:55 10° NW 08:48:54 14° N 08:51:53 10° NNE daylight
30 Jan - 10:33:36 10° NNW 10:37:42 19° NNE 10:41:47 10° ENE daylight
30 Jan - 12:19:40 10° NNW 12:25:24 54° NE 12:31:07 10° SE daylight
30 Jan - 14:06:23 10° NW 14:11:31 33° WSW 14:16:42 10° S daylight
31 Jan - 03:31:28 10° SSE 03:36:32 29° ESE 03:41:31 10° NE visible
31 Jan - 05:16:36 10° SW 05:22:32 62° NW 05:28:22 10° NNE visible
31 Jan - 07:05:42 10° WNW 07:10:04 21° NNW 07:14:24 10° NNE daylight
31 Jan - 08:55:53 10° NNW 08:58:48 14° N 09:01:43 10° NNE daylight
31 Jan - 10:42:55 10° NNW 10:47:28 23° NNE 10:51:59 10° E daylight
31 Jan - 12:28:58 10° NNW 12:34:49 73° NE 12:40:41 10° SE daylight
31 Jan - 14:16:08 10° WNW 14:20:37 23° WSW 14:25:07 10° SSW daylight
01 Feb - 03:40:05 10° S 03:45:40 41° ESE 03:51:09 10° NE visible
01 Feb - 05:26:16 10° WSW 05:32:00 46° NW 05:37:39 10° NNE visible
01 Feb - 07:15:57 10° WNW 07:19:51 18° NNW 07:23:43 10° NNE daylight
01 Feb - 09:05:37 10° NNW 09:08:42 14° N 09:11:46 10° NE daylight
01 Feb - 10:52:12 10° NNW 10:57:09 28° NE 11:02:06 10° E daylight
01 Feb - 12:38:19 10° NW 12:44:10 83° WSW 12:50:03 10° SSE daylight
01 Feb - 14:26:16 10° WNW 14:29:38 16° WSW 14:33:02 10° SW daylight
02 Feb - 02:09:12 10° ESE 02:09:43 10° E 02:10:14 10° E visible
02 Feb - 03:49:00 10° SSW 03:54:52 59° ESE 04:00:39 10° NE visible
02 Feb - 05:36:06 10° WSW 05:41:32 36° NW 05:46:54 10° NNE visible
02 Feb - 07:26:14 10° NW 07:29:41 16° NNW 07:33:08 10° NNE daylight
02 Feb - 09:15:11 10° NNW 09:18:35 15° NNE 09:21:58 10° NE daylight
02 Feb - 11:01:27 10° NNW 11:06:46 35° NE 11:12:05 10° ESE daylight
02 Feb - 12:47:43 10° NW 12:53:27 60° WSW 12:59:12 10° SSE daylight
02 Feb - 14:38:02 10° W 14:38:35 10° W 14:39:09 10° WSW daylight
